Location: Härggis
(46.9540°N, 8.4897°E)
Time: 00:17:19
(UTC+00:00)

USA 229 DEB - Pass Details

Date: 27 May 2022
Orbit: 934 x 1278 km, 63.4° (Epoch: 24 May)

Event Time Altitude Azimuth Distance (km) Brightness Sun altitude
Rises 00:16:39 0° 318° (NW) 3,981 7.2 -20.7°
Reaches altitude 10° 00:19:18 10° 315° (NW) 3,065 6.5 -20.6°
Maximum altitude 00:26:31 58° 239° (WSW) 1,403 4.0 -20.3°
Enters shadow 00:30:40 28° 173° (S) 2,137 4.7 -20.1°
